Year,Month,Day,Hour,Minute,Value (Times are PST for temperature in C)
2009,02,15,00,00,0.70
2009,02,15,00,01,0.70
2009,02,15,00,02,0.70
2009,02,15,00,03,0.70
2009,02,15,00,04,0.70
2009,02,15,00,05,0.70
2009,02,15,00,06,0.70
2009,02,15,00,07,0.70
2009,02,15,00,08,0.70
2009,02,15,00,09,0.70
2009,02,15,00,10,0.70
2009,02,15,00,11,0.70
2009,02,15,00,12,0.70
2009,02,15,00,13,0.70
2009,02,15,00,14,0.70
2009,02,15,00,15,0.70
2009,02,15,00,16,0.70
2009,02,15,00,17,0.70
2009,02,15,00,18,0.70
2009,02,15,00,19,0.70
2009,02,15,00,20,0.70
2009,02,15,00,21,0.70
2009,02,15,00,22,0.70
2009,02,15,00,23,0.80
2009,02,15,00,24,0.70
2009,02,15,00,25,0.80
2009,02,15,00,26,0.70
2009,02,15,00,27,0.70
2009,02,15,00,28,0.70
2009,02,15,00,29,0.70
2009,02,15,00,30,0.70
2009,02,15,00,31,0.70
2009,02,15,00,32,0.70
2009,02,15,00,33,0.70
2009,02,15,00,34,0.70
2009,02,15,00,35,0.70
2009,02,15,00,36,0.70
2009,02,15,00,37,0.70
2009,02,15,00,38,0.70
2009,02,15,00,39,0.70
2009,02,15,00,40,0.70
2009,02,15,00,41,0.70
2009,02,15,00,42,0.70
2009,02,15,00,43,0.70
2009,02,15,00,44,0.70
2009,02,15,00,45,0.70
2009,02,15,00,46,0.70
2009,02,15,00,47,0.70
2009,02,15,00,48,0.70
2009,02,15,00,49,0.70
2009,02,15,00,50,0.70
2009,02,15,00,51,0.70
2009,02,15,00,52,0.70
2009,02,15,00,53,0.80
2009,02,15,00,54,0.80
2009,02,15,00,55,0.80
2009,02,15,00,56,0.80
2009,02,15,00,57,0.80
2009,02,15,00,58,0.80
2009,02,15,00,59,0.80
2009,02,15,01,00,0.80
2009,02,15,01,01,0.80
2009,02,15,01,02,0.80
2009,02,15,01,03,0.80
2009,02,15,01,04,0.80
2009,02,15,01,05,0.80
2009,02,15,01,06,0.80
2009,02,15,01,07,0.80
2009,02,15,01,08,0.80
2009,02,15,01,09,0.80
2009,02,15,01,10,0.80
2009,02,15,01,11,0.80
2009,02,15,01,12,0.80
2009,02,15,01,13,0.80
2009,02,15,01,14,0.80
2009,02,15,01,15,0.80
2009,02,15,01,16,0.80
2009,02,15,01,17,0.80
2009,02,15,01,18,0.70
2009,02,15,01,19,0.70
2009,02,15,01,20,0.70
2009,02,15,01,21,0.70
2009,02,15,01,22,0.70
2009,02,15,01,23,0.70
2009,02,15,01,24,0.70
2009,02,15,01,25,0.70
2009,02,15,01,26,0.60
2009,02,15,01,27,0.60
2009,02,15,01,28,0.60
2009,02,15,01,29,0.60
2009,02,15,01,30,0.60
2009,02,15,01,31,0.60
2009,02,15,01,32,0.60
2009,02,15,01,33,0.60
2009,02,15,01,34,0.60
2009,02,15,01,35,0.60
2009,02,15,01,36,0.60
2009,02,15,01,37,0.50
2009,02,15,01,38,0.50
2009,02,15,01,39,0.50
2009,02,15,01,40,0.50
2009,02,15,01,41,0.50
2009,02,15,01,42,0.40
2009,02,15,01,43,0.40
2009,02,15,01,44,0.40
2009,02,15,01,45,0.40
2009,02,15,01,46,0.30
2009,02,15,01,47,0.30
2009,02,15,01,48,0.30
2009,02,15,01,49,0.30
2009,02,15,01,50,0.30
2009,02,15,01,51,0.20
2009,02,15,01,52,0.20
2009,02,15,01,53,0.20
2009,02,15,01,54,0.20
2009,02,15,01,55,0.20
2009,02,15,01,56,0.20
2009,02,15,01,57,0.20
2009,02,15,01,58,0.10
2009,02,15,01,59,0.10
2009,02,15,02,00,0.10
2009,02,15,02,01,0.10
2009,02,15,02,02,0.10
2009,02,15,02,03,0.10
2009,02,15,02,04,0.10
2009,02,15,02,05,0.10
2009,02,15,02,06,0.00
2009,02,15,02,07,-0.10
2009,02,15,02,08,-0.10
2009,02,15,02,09,-0.20
2009,02,15,02,10,-0.20
2009,02,15,02,11,-0.20
2009,02,15,02,12,-0.20
2009,02,15,02,13,-0.20
2009,02,15,02,14,-0.20
2009,02,15,02,15,-0.30
2009,02,15,02,16,-0.30
2009,02,15,02,17,-0.30
2009,02,15,02,18,-0.30
2009,02,15,02,19,-0.30
2009,02,15,02,20,-0.40
2009,02,15,02,21,-0.40
2009,02,15,02,22,-0.40
2009,02,15,02,23,-0.40
2009,02,15,02,24,-0.50
2009,02,15,02,25,-0.50
2009,02,15,02,26,-0.50
2009,02,15,02,27,-0.50
2009,02,15,02,28,-0.50
2009,02,15,02,29,-0.50
2009,02,15,02,30,-0.40
2009,02,15,02,31,-0.40
2009,02,15,02,32,-0.40
2009,02,15,02,33,-0.40
2009,02,15,02,34,-0.50
2009,02,15,02,35,-0.50
2009,02,15,02,36,-0.50
2009,02,15,02,37,-0.60
2009,02,15,02,38,-0.60
2009,02,15,02,39,-0.60
2009,02,15,02,40,-0.60
2009,02,15,02,41,-0.60
2009,02,15,02,42,-0.60
2009,02,15,02,43,-0.70
2009,02,15,02,44,-0.70
2009,02,15,02,45,-0.70
2009,02,15,02,46,-0.70
2009,02,15,02,47,-0.80
2009,02,15,02,48,-0.80
2009,02,15,02,49,-0.80
2009,02,15,02,50,-0.80
2009,02,15,02,51,-0.80
2009,02,15,02,52,-0.80
2009,02,15,02,53,-0.80
2009,02,15,02,54,-0.80
2009,02,15,02,55,-0.80
2009,02,15,02,56,-0.80
2009,02,15,02,57,-0.80
2009,02,15,02,58,-0.80
2009,02,15,02,59,-0.80
2009,02,15,03,00,-0.80
2009,02,15,03,01,-0.80
2009,02,15,03,02,-0.80
2009,02,15,03,03,-0.80
2009,02,15,03,04,-0.90
2009,02,15,03,05,-0.90
2009,02,15,03,06,-0.90
2009,02,15,03,07,-0.90
2009,02,15,03,08,-0.90
2009,02,15,03,09,-0.90
2009,02,15,03,10,-0.80
2009,02,15,03,11,-0.80
2009,02,15,03,12,-0.80
2009,02,15,03,13,-0.80
2009,02,15,03,14,-0.80
2009,02,15,03,15,-0.80
2009,02,15,03,16,-0.80
2009,02,15,03,17,-0.80
2009,02,15,03,18,-0.70
2009,02,15,03,19,-0.70
2009,02,15,03,20,-0.70
2009,02,15,03,21,-0.70
2009,02,15,03,22,-0.70
2009,02,15,03,23,-0.70
2009,02,15,03,24,-0.70
2009,02,15,03,25,-0.70
2009,02,15,03,26,-0.80
2009,02,15,03,27,-0.80
2009,02,15,03,28,-0.80
2009,02,15,03,29,-0.80
2009,02,15,03,30,-0.80
2009,02,15,03,31,-0.80
2009,02,15,03,32,-0.80
2009,02,15,03,33,-0.80
2009,02,15,03,34,-0.70
2009,02,15,03,35,-0.70
2009,02,15,03,36,-0.70
2009,02,15,03,37,-0.80
2009,02,15,03,38,-0.80
2009,02,15,03,39,-0.80
2009,02,15,03,40,-0.80
2009,02,15,03,41,-0.80
2009,02,15,03,42,-0.80
2009,02,15,03,43,-0.80
2009,02,15,03,44,-0.80
2009,02,15,03,45,-0.80
2009,02,15,03,46,-0.80
2009,02,15,03,47,-0.90
2009,02,15,03,48,-0.90
2009,02,15,03,49,-0.90
2009,02,15,03,50,-0.90
2009,02,15,03,51,-1.00
2009,02,15,03,52,-1.00
2009,02,15,03,53,-1.00
2009,02,15,03,54,-1.00
2009,02,15,03,55,-1.00
2009,02,15,03,56,-1.00
2009,02,15,03,57,-1.00
2009,02,15,03,58,-1.00
2009,02,15,03,59,-1.00
2009,02,15,04,00,-1.00
2009,02,15,04,01,-1.00
2009,02,15,04,02,-1.00
2009,02,15,04,03,-1.00
2009,02,15,04,04,-1.00
2009,02,15,04,05,-1.00
2009,02,15,04,06,-1.00
2009,02,15,04,07,-1.00
2009,02,15,04,08,-1.00
2009,02,15,04,09,-1.10
2009,02,15,04,10,-1.10
2009,02,15,04,11,-1.20
2009,02,15,04,12,-1.20
2009,02,15,04,13,-1.20
2009,02,15,04,14,-1.20
2009,02,15,04,15,-1.20
2009,02,15,04,16,-1.20
2009,02,15,04,17,-1.20
2009,02,15,04,18,-1.30
2009,02,15,04,19,-1.30
2009,02,15,04,20,-1.30
2009,02,15,04,21,-1.30
2009,02,15,04,22,-1.30
2009,02,15,04,23,-1.30
2009,02,15,04,24,-1.40
2009,02,15,04,25,-1.40
2009,02,15,04,26,-1.40
2009,02,15,04,27,-1.40
2009,02,15,04,28,-1.40
2009,02,15,04,29,-1.40
2009,02,15,04,30,-1.40
2009,02,15,04,31,-1.50
2009,02,15,04,32,-1.50
2009,02,15,04,33,-1.50
2009,02,15,04,34,-1.50
2009,02,15,04,35,-1.50
2009,02,15,04,36,-1.50
2009,02,15,04,37,-1.60
2009,02,15,04,38,-1.60
2009,02,15,04,39,-1.70
2009,02,15,04,40,-1.70
2009,02,15,04,41,-1.70
2009,02,15,04,42,-1.70
2009,02,15,04,43,-1.70
2009,02,15,04,44,-1.70
2009,02,15,04,45,-1.60
2009,02,15,04,46,-1.60
2009,02,15,04,47,-1.60
2009,02,15,04,48,-1.60
2009,02,15,04,49,-1.60
2009,02,15,04,50,-1.60
2009,02,15,04,51,-1.60
2009,02,15,04,52,-1.60
2009,02,15,04,53,-1.60
2009,02,15,04,54,-1.70
2009,02,15,04,55,-1.70
2009,02,15,04,56,-1.70
2009,02,15,04,57,-1.70
2009,02,15,04,58,-1.70
2009,02,15,04,59,-1.70
2009,02,15,05,00,-1.60
2009,02,15,05,01,-1.60
2009,02,15,05,02,-1.60
2009,02,15,05,03,-1.60
2009,02,15,05,04,-1.60
2009,02,15,05,05,-1.60
2009,02,15,05,06,-1.60
2009,02,15,05,07,-1.60
2009,02,15,05,08,-1.60
2009,02,15,05,09,-1.60
2009,02,15,05,10,-1.60
2009,02,15,05,11,-1.70
2009,02,15,05,12,-1.70
2009,02,15,05,13,-1.70
2009,02,15,05,14,-1.70
2009,02,15,05,15,-1.70
2009,02,15,05,16,-1.70
2009,02,15,05,17,-1.70
2009,02,15,05,18,-1.70
2009,02,15,05,19,-1.70
2009,02,15,05,20,-1.70
2009,02,15,05,21,-1.70
2009,02,15,05,22,-1.70
2009,02,15,05,23,-1.70
2009,02,15,05,24,-1.70
2009,02,15,05,25,-1.70
2009,02,15,05,26,-1.70
2009,02,15,05,27,-1.70
2009,02,15,05,28,-1.70
2009,02,15,05,29,-1.70
2009,02,15,05,30,-1.70
2009,02,15,05,31,-1.80
2009,02,15,05,32,-1.80
2009,02,15,05,33,-1.80
2009,02,15,05,34,-1.80
2009,02,15,05,35,-1.80
2009,02,15,05,36,-1.80
2009,02,15,05,37,-1.80
2009,02,15,05,38,-1.80
2009,02,15,05,39,-1.80
2009,02,15,05,40,-1.90
2009,02,15,05,41,-1.90
2009,02,15,05,42,-1.90
2009,02,15,05,43,-1.90
2009,02,15,05,44,-1.90
2009,02,15,05,45,-1.90
2009,02,15,05,46,-1.80
2009,02,15,05,47,-1.90
2009,02,15,05,48,-1.90
2009,02,15,05,49,-1.90
2009,02,15,05,50,-1.90
2009,02,15,05,51,-1.90
2009,02,15,05,52,-1.90
2009,02,15,05,53,-1.90
2009,02,15,05,54,-1.90
2009,02,15,05,55,-1.90
2009,02,15,05,56,-1.90
2009,02,15,05,57,-1.90
2009,02,15,05,58,-1.90
2009,02,15,05,59,-1.90
2009,02,15,06,00,-1.90
2009,02,15,06,01,-1.90
2009,02,15,06,02,-1.90
2009,02,15,06,03,-1.90
2009,02,15,06,04,-1.80
2009,02,15,06,05,-1.80
2009,02,15,06,06,-1.80
2009,02,15,06,07,-1.80
2009,02,15,06,08,-1.80
2009,02,15,06,09,-1.80
2009,02,15,06,10,-1.80
2009,02,15,06,11,-1.70
2009,02,15,06,12,-1.70
2009,02,15,06,13,-1.70
2009,02,15,06,14,-1.70
2009,02,15,06,15,-1.70
2009,02,15,06,16,-1.70
2009,02,15,06,17,-1.70
2009,02,15,06,18,-1.70
2009,02,15,06,19,-1.70
2009,02,15,06,20,-1.70
2009,02,15,06,21,-1.70
2009,02,15,06,22,-1.70
2009,02,15,06,23,-1.70
2009,02,15,06,24,-1.70
2009,02,15,06,25,-1.70
2009,02,15,06,26,-1.70
2009,02,15,06,27,-1.70
2009,02,15,06,28,-1.80
2009,02,15,06,29,-1.80
2009,02,15,06,30,-1.80
2009,02,15,06,31,-1.80
2009,02,15,06,32,-1.80
2009,02,15,06,33,-1.80
2009,02,15,06,34,-1.90
2009,02,15,06,35,-1.90
2009,02,15,06,36,-1.90
2009,02,15,06,37,-1.90
2009,02,15,06,38,-1.90
2009,02,15,06,39,-2.00
2009,02,15,06,40,-2.00
2009,02,15,06,41,-2.00
2009,02,15,06,42,-2.10
2009,02,15,06,43,-2.10
2009,02,15,06,44,-2.10
2009,02,15,06,45,-2.10
2009,02,15,06,46,-2.10
2009,02,15,06,47,-2.10
2009,02,15,06,48,-2.10
2009,02,15,06,49,-2.10
2009,02,15,06,50,-2.10
2009,02,15,06,51,-2.10
2009,02,15,06,52,-2.10
2009,02,15,06,53,-2.10
2009,02,15,06,54,-2.10
2009,02,15,06,55,-2.10
2009,02,15,06,56,-2.10
2009,02,15,06,57,-2.10
2009,02,15,06,58,-2.10
2009,02,15,06,59,-2.10
2009,02,15,07,00,-2.10
2009,02,15,07,01,-2.10
2009,02,15,07,02,-2.10
2009,02,15,07,03,-2.10
2009,02,15,07,04,-2.10
2009,02,15,07,05,-2.10
2009,02,15,07,06,-2.10
2009,02,15,07,07,-2.10
2009,02,15,07,08,-2.10
2009,02,15,07,09,-2.10
2009,02,15,07,10,-2.10
2009,02,15,07,11,-2.10
2009,02,15,07,12,-2.10
2009,02,15,07,13,-2.10
2009,02,15,07,14,-2.10
2009,02,15,07,15,-2.10
2009,02,15,07,16,-2.20
2009,02,15,07,17,-2.20
2009,02,15,07,18,-2.20
2009,02,15,07,19,-2.20
2009,02,15,07,20,-2.20
2009,02,15,07,21,-2.20
2009,02,15,07,22,-2.20
2009,02,15,07,23,-2.20
2009,02,15,07,24,-2.20
2009,02,15,07,25,-2.20
2009,02,15,07,26,-2.20
2009,02,15,07,27,-2.20
2009,02,15,07,28,-2.20
2009,02,15,07,29,-2.20
2009,02,15,07,30,-2.20
2009,02,15,07,31,-2.20
2009,02,15,07,32,-2.20
2009,02,15,07,33,-2.20
2009,02,15,07,34,-2.20
2009,02,15,07,35,-2.20
2009,02,15,07,36,-2.20
2009,02,15,07,37,-2.20
2009,02,15,07,38,-2.20
2009,02,15,07,39,-2.20
2009,02,15,07,40,-2.20
2009,02,15,07,41,-2.20
2009,02,15,07,42,-2.20
2009,02,15,07,43,-2.20
2009,02,15,07,44,-2.20
2009,02,15,07,45,-2.20
2009,02,15,07,46,-2.20
2009,02,15,07,47,-2.20
2009,02,15,07,48,-2.20
2009,02,15,07,49,-2.20
2009,02,15,07,50,-2.30
2009,02,15,07,51,-2.30
2009,02,15,07,52,-2.30
2009,02,15,07,53,-2.30
2009,02,15,07,54,-2.30
2009,02,15,07,55,-2.40
2009,02,15,07,56,-2.40
2009,02,15,07,57,-2.40
2009,02,15,07,58,-2.40
2009,02,15,07,59,-2.40
2009,02,15,08,00,-2.40
2009,02,15,08,01,-2.40
2009,02,15,08,02,-2.40
2009,02,15,08,03,-2.40
2009,02,15,08,04,-2.40
2009,02,15,08,05,-2.40
2009,02,15,08,06,-2.30
2009,02,15,08,07,-2.30
2009,02,15,08,08,-2.30
2009,02,15,08,09,-2.30
2009,02,15,08,10,-2.30
2009,02,15,08,11,-2.30
2009,02,15,08,12,-2.30
2009,02,15,08,13,-2.30
2009,02,15,08,14,-2.30
2009,02,15,08,15,-2.30
2009,02,15,08,16,-2.30
2009,02,15,08,17,-2.30
2009,02,15,08,18,-2.30
2009,02,15,08,19,-2.30
2009,02,15,08,20,-2.30
2009,02,15,08,21,-2.30
2009,02,15,08,22,-2.30
2009,02,15,08,23,-2.30
2009,02,15,08,24,-2.30
2009,02,15,08,25,-2.30
2009,02,15,08,26,-2.30
2009,02,15,08,27,-2.30
2009,02,15,08,28,-2.30
2009,02,15,08,29,-2.20
2009,02,15,08,30,-2.20
2009,02,15,08,31,-2.20
2009,02,15,08,32,-2.20
2009,02,15,08,33,-2.10
2009,02,15,08,34,-2.10
2009,02,15,08,35,-2.10
2009,02,15,08,36,-2.10
2009,02,15,08,37,-2.10
2009,02,15,08,38,-2.10
2009,02,15,08,39,-2.10
2009,02,15,08,40,-2.00
2009,02,15,08,41,-2.00
2009,02,15,08,42,-1.90
2009,02,15,08,43,-1.90
2009,02,15,08,44,-1.90
2009,02,15,08,45,-1.90
2009,02,15,08,46,-1.80
2009,02,15,08,47,-1.80
2009,02,15,08,48,-1.80
2009,02,15,08,49,-1.80
2009,02,15,08,50,-1.80
2009,02,15,08,51,-1.70
2009,02,15,08,52,-1.70
2009,02,15,08,53,-1.70
2009,02,15,08,54,-1.60
2009,02,15,08,55,-1.50
2009,02,15,08,56,-1.40
2009,02,15,08,57,-1.30
2009,02,15,08,58,-1.30
2009,02,15,08,59,-1.30
2009,02,15,09,00,-1.20
2009,02,15,09,01,-1.20
2009,02,15,09,02,-1.20
2009,02,15,09,03,-1.20
2009,02,15,09,04,-1.20
2009,02,15,09,05,-1.20
2009,02,15,09,06,-1.20
2009,02,15,09,07,-1.10
2009,02,15,09,08,-1.10
2009,02,15,09,09,-1.10
2009,02,15,09,10,-1.10
2009,02,15,09,11,-1.10
2009,02,15,09,12,-1.10
2009,02,15,09,13,-1.00
2009,02,15,09,14,-1.00
2009,02,15,09,15,-1.00
2009,02,15,09,16,-0.90
2009,02,15,09,17,-0.90
2009,02,15,09,18,-0.90
2009,02,15,09,19,-0.90
2009,02,15,09,20,-0.80
2009,02,15,09,21,-0.80
2009,02,15,09,22,-0.80
2009,02,15,09,23,-0.70
2009,02,15,09,24,-0.70
2009,02,15,09,25,-0.60
2009,02,15,09,26,-0.40
2009,02,15,09,27,-0.30
2009,02,15,09,28,-0.30
2009,02,15,09,29,-0.20
2009,02,15,09,30,-0.10
2009,02,15,09,31,-0.10
2009,02,15,09,32,0.00
2009,02,15,09,33,0.00
2009,02,15,09,34,0.10
2009,02,15,09,35,0.20
2009,02,15,09,36,0.20
2009,02,15,09,37,0.30
2009,02,15,09,38,0.40
2009,02,15,09,39,0.50
2009,02,15,09,40,0.60
2009,02,15,09,41,0.80
2009,02,15,09,42,0.90
2009,02,15,09,43,1.10
2009,02,15,09,44,1.20
2009,02,15,09,45,1.30
2009,02,15,09,46,1.30
2009,02,15,09,47,1.30
2009,02,15,09,48,1.40
2009,02,15,09,49,1.50
2009,02,15,09,50,1.50
2009,02,15,09,51,1.60
2009,02,15,09,52,1.60
2009,02,15,09,53,1.60
2009,02,15,09,54,1.60
2009,02,15,09,55,1.70
2009,02,15,09,56,1.70
2009,02,15,09,57,1.70
2009,02,15,09,58,1.70
2009,02,15,09,59,1.70
2009,02,15,10,00,1.70
2009,02,15,10,01,1.70
2009,02,15,10,02,1.80
2009,02,15,10,03,1.80
2009,02,15,10,04,1.80
2009,02,15,10,05,1.80
2009,02,15,10,06,1.80
2009,02,15,10,07,1.80
2009,02,15,10,08,1.80
2009,02,15,10,09,1.80
2009,02,15,10,10,1.80
2009,02,15,10,11,1.80
2009,02,15,10,12,1.80
2009,02,15,10,13,2.00
2009,02,15,10,14,2.30
2009,02,15,10,15,2.40
2009,02,15,10,16,2.40
2009,02,15,10,17,2.50
2009,02,15,10,18,2.50
2009,02,15,10,19,2.60
2009,02,15,10,20,2.70
2009,02,15,10,21,2.70
2009,02,15,10,22,2.80
2009,02,15,10,23,2.90
2009,02,15,10,24,3.00
2009,02,15,10,25,3.10
2009,02,15,10,26,3.20
2009,02,15,10,27,3.20
2009,02,15,10,28,3.30
2009,02,15,10,29,3.40
2009,02,15,10,30,3.50
2009,02,15,10,31,3.60
2009,02,15,10,32,3.70
2009,02,15,10,33,3.80
2009,02,15,10,34,3.90
2009,02,15,10,35,4.00
2009,02,15,10,36,4.10
2009,02,15,10,37,4.10
2009,02,15,10,38,4.20
2009,02,15,10,39,4.30
2009,02,15,10,40,4.30
2009,02,15,10,41,4.40
2009,02,15,10,42,4.40
2009,02,15,10,43,4.50
2009,02,15,10,44,4.50
2009,02,15,10,45,4.60
2009,02,15,10,46,4.70
2009,02,15,10,47,4.70
2009,02,15,10,48,4.80
2009,02,15,10,49,4.80
2009,02,15,10,50,4.80
2009,02,15,10,51,4.80
2009,02,15,10,52,4.80
2009,02,15,10,53,4.80
2009,02,15,10,54,4.80
2009,02,15,10,55,4.80
2009,02,15,10,56,4.80
2009,02,15,10,57,4.80
2009,02,15,10,58,4.90
2009,02,15,10,59,4.90
2009,02,15,11,00,4.90
2009,02,15,11,01,4.90
2009,02,15,11,02,4.90
2009,02,15,11,03,4.90
2009,02,15,11,04,4.90
2009,02,15,11,05,4.90
2009,02,15,11,06,4.90
2009,02,15,11,07,5.00
2009,02,15,11,08,5.00
2009,02,15,11,09,5.10
2009,02,15,11,10,5.10
2009,02,15,11,11,5.20
2009,02,15,11,12,5.30
2009,02,15,11,13,5.30
2009,02,15,11,14,5.30
2009,02,15,11,15,5.30
2009,02,15,11,16,5.30
2009,02,15,11,17,5.40
2009,02,15,11,18,5.40
2009,02,15,11,19,5.50
2009,02,15,11,20,5.50
2009,02,15,11,21,5.50
2009,02,15,11,22,5.60
2009,02,15,11,23,5.60
2009,02,15,11,24,5.70
2009,02,15,11,25,5.70
2009,02,15,11,26,5.70
2009,02,15,11,27,5.70
2009,02,15,11,28,5.70
2009,02,15,11,29,5.70
2009,02,15,11,30,5.70
2009,02,15,11,31,5.70
2009,02,15,11,32,5.70
2009,02,15,11,33,5.80
2009,02,15,11,34,5.80
2009,02,15,11,35,5.80
2009,02,15,11,36,5.80
2009,02,15,11,37,5.80
2009,02,15,11,38,5.80
2009,02,15,11,39,5.70
2009,02,15,11,40,5.70
2009,02,15,11,41,5.70
2009,02,15,11,42,5.70
2009,02,15,11,43,5.70
2009,02,15,11,44,5.80
2009,02,15,11,45,5.80
2009,02,15,11,46,5.90
2009,02,15,11,47,5.90
2009,02,15,11,48,6.00
2009,02,15,11,49,6.10
2009,02,15,11,50,6.10
2009,02,15,11,51,6.10
2009,02,15,11,52,6.10
2009,02,15,11,53,6.20
2009,02,15,11,54,6.20
2009,02,15,11,55,6.20
2009,02,15,11,56,6.20
2009,02,15,11,57,6.20
2009,02,15,11,58,6.20
2009,02,15,11,59,6.20
2009,02,15,12,00,6.20
2009,02,15,12,01,6.30
2009,02,15,12,02,6.30
2009,02,15,12,03,6.40
2009,02,15,12,04,6.40
2009,02,15,12,05,6.40
2009,02,15,12,06,6.40
2009,02,15,12,07,6.50
2009,02,15,12,08,6.50
2009,02,15,12,09,6.60
2009,02,15,12,10,6.60
2009,02,15,12,11,6.60
2009,02,15,12,12,6.60
2009,02,15,12,13,6.60
2009,02,15,12,14,6.60
2009,02,15,12,15,6.80
2009,02,15,12,16,6.90
2009,02,15,12,17,6.90
2009,02,15,12,18,6.90
2009,02,15,12,19,6.90
2009,02,15,12,20,6.90
2009,02,15,12,21,6.90
2009,02,15,12,22,6.90
2009,02,15,12,23,6.90
2009,02,15,12,24,6.80
2009,02,15,12,25,6.80
2009,02,15,12,26,6.90
2009,02,15,12,27,6.80
2009,02,15,12,28,6.80
2009,02,15,12,29,6.80
2009,02,15,12,30,6.80
2009,02,15,12,31,6.70
2009,02,15,12,32,6.60
2009,02,15,12,33,6.70
2009,02,15,12,34,6.70
2009,02,15,12,35,6.60
2009,02,15,12,36,6.60
2009,02,15,12,37,6.60
2009,02,15,12,38,6.60
2009,02,15,12,39,6.60
2009,02,15,12,40,6.60
2009,02,15,12,41,6.60
2009,02,15,12,42,6.60
2009,02,15,12,43,6.60
2009,02,15,12,44,6.60
2009,02,15,12,45,6.60
2009,02,15,12,46,6.70
2009,02,15,12,47,6.80
2009,02,15,12,48,6.80
2009,02,15,12,49,6.90
2009,02,15,12,50,6.90
2009,02,15,12,51,7.00
2009,02,15,12,52,7.20
2009,02,15,12,53,7.20
2009,02,15,12,54,7.40
2009,02,15,12,55,7.50
2009,02,15,12,56,7.60
2009,02,15,12,57,7.50
2009,02,15,12,58,7.50
2009,02,15,12,59,7.60
2009,02,15,13,00,7.60
2009,02,15,13,01,7.60
2009,02,15,13,02,7.70
2009,02,15,13,03,7.80
2009,02,15,13,04,7.80
2009,02,15,13,05,7.80
2009,02,15,13,06,7.70
2009,02,15,13,07,7.60
2009,02,15,13,08,7.40
2009,02,15,13,09,7.40
2009,02,15,13,10,7.40
2009,02,15,13,11,7.40
2009,02,15,13,12,7.40
2009,02,15,13,13,7.40
2009,02,15,13,14,7.40
2009,02,15,13,15,7.40
2009,02,15,13,16,7.40
2009,02,15,13,17,7.30
2009,02,15,13,18,7.30
2009,02,15,13,19,7.40
2009,02,15,13,20,7.40
2009,02,15,13,21,7.40
2009,02,15,13,22,7.30
2009,02,15,13,23,7.30
2009,02,15,13,24,7.30
2009,02,15,13,25,7.40
2009,02,15,13,26,7.50
2009,02,15,13,27,7.60
2009,02,15,13,28,7.70
2009,02,15,13,29,7.70
2009,02,15,13,30,7.80
2009,02,15,13,31,7.90
2009,02,15,13,32,8.00
2009,02,15,13,33,8.00
2009,02,15,13,34,8.00
2009,02,15,13,35,8.00
2009,02,15,13,36,8.00
2009,02,15,13,37,8.00
2009,02,15,13,38,8.20
2009,02,15,13,39,8.30
2009,02,15,13,40,8.20
2009,02,15,13,41,8.20
2009,02,15,13,42,8.20
2009,02,15,13,43,8.20
2009,02,15,13,44,8.20
2009,02,15,13,45,8.10
2009,02,15,13,46,8.00
2009,02,15,13,47,8.00
2009,02,15,13,48,8.00
2009,02,15,13,49,8.00
2009,02,15,13,50,8.10
2009,02,15,13,51,8.10
2009,02,15,13,52,8.10
2009,02,15,13,53,8.10
2009,02,15,13,54,8.20
2009,02,15,13,55,8.20
2009,02,15,13,56,8.10
2009,02,15,13,57,8.10
2009,02,15,13,58,8.00
2009,02,15,13,59,7.90
2009,02,15,14,00,7.90
2009,02,15,14,01,7.90
2009,02,15,14,02,7.90
2009,02,15,14,03,7.80
2009,02,15,14,04,7.80
2009,02,15,14,05,7.80
2009,02,15,14,06,7.80
2009,02,15,14,07,7.90
2009,02,15,14,08,8.00
2009,02,15,14,09,8.00
2009,02,15,14,10,8.10
2009,02,15,14,11,8.10
2009,02,15,14,12,8.20
2009,02,15,14,13,8.20
2009,02,15,14,14,8.20
2009,02,15,14,15,8.10
2009,02,15,14,16,8.10
2009,02,15,14,17,8.10
2009,02,15,14,18,8.10
2009,02,15,14,19,8.10
2009,02,15,14,20,8.10
2009,02,15,14,21,8.10
2009,02,15,14,22,8.10
2009,02,15,14,23,8.10
2009,02,15,14,24,8.10
2009,02,15,14,25,8.10
2009,02,15,14,26,8.10
2009,02,15,14,27,8.00
2009,02,15,14,28,8.00
2009,02,15,14,29,7.90
2009,02,15,14,30,7.90
2009,02,15,14,31,7.90
2009,02,15,14,32,8.00
2009,02,15,14,33,8.00
2009,02,15,14,34,8.00
2009,02,15,14,35,8.10
2009,02,15,14,36,8.10
2009,02,15,14,37,8.10
2009,02,15,14,38,8.10
2009,02,15,14,39,8.10
2009,02,15,14,40,8.10
2009,02,15,14,41,8.00
2009,02,15,14,42,8.00
2009,02,15,14,43,7.90
2009,02,15,14,44,7.90
2009,02,15,14,45,7.90
2009,02,15,14,46,7.90
2009,02,15,14,47,7.90
2009,02,15,14,48,7.90
2009,02,15,14,49,7.90
2009,02,15,14,50,8.00
2009,02,15,14,51,8.00
2009,02,15,14,52,8.10
2009,02,15,14,53,8.10
2009,02,15,14,54,8.20
2009,02,15,14,55,8.20
2009,02,15,14,56,8.30
2009,02,15,14,57,8.30
2009,02,15,14,58,8.30
2009,02,15,14,59,8.30
2009,02,15,15,00,8.30
2009,02,15,15,01,8.30
2009,02,15,15,02,8.30
2009,02,15,15,03,8.30
2009,02,15,15,04,8.30
2009,02,15,15,05,8.30
2009,02,15,15,06,8.30
2009,02,15,15,07,8.30
2009,02,15,15,08,8.30
2009,02,15,15,09,8.20
2009,02,15,15,10,8.20
2009,02,15,15,11,8.10
2009,02,15,15,12,8.00
2009,02,15,15,13,7.90
2009,02,15,15,14,7.90
2009,02,15,15,15,7.90
2009,02,15,15,16,7.90
2009,02,15,15,17,8.00
2009,02,15,15,18,8.00
2009,02,15,15,19,8.10
2009,02,15,15,20,8.10
2009,02,15,15,21,8.10
2009,02,15,15,22,8.10
2009,02,15,15,23,8.10
2009,02,15,15,24,8.10
2009,02,15,15,25,8.00
2009,02,15,15,26,7.90
2009,02,15,15,27,7.90
2009,02,15,15,28,7.80
2009,02,15,15,29,7.80
2009,02,15,15,30,7.80
2009,02,15,15,31,7.90
2009,02,15,15,32,8.00
2009,02,15,15,33,8.00
2009,02,15,15,34,8.10
2009,02,15,15,35,8.20
2009,02,15,15,36,8.20
2009,02,15,15,37,8.30
2009,02,15,15,38,8.20
2009,02,15,15,39,8.20
2009,02,15,15,40,8.20
2009,02,15,15,41,8.20
2009,02,15,15,42,8.20
2009,02,15,15,43,8.20
2009,02,15,15,44,8.10
2009,02,15,15,45,8.10
2009,02,15,15,46,8.10
2009,02,15,15,47,8.00
2009,02,15,15,48,8.10
2009,02,15,15,49,8.10
2009,02,15,15,50,8.20
2009,02,15,15,51,8.20
2009,02,15,15,52,8.20
2009,02,15,15,53,8.20
2009,02,15,15,54,8.20
2009,02,15,15,55,8.10
2009,02,15,15,56,8.10
2009,02,15,15,57,8.00
2009,02,15,15,58,8.00
2009,02,15,15,59,8.00
2009,02,15,16,00,8.00
2009,02,15,16,01,8.00
2009,02,15,16,02,8.10
2009,02,15,16,03,8.10
2009,02,15,16,04,8.20
2009,02,15,16,05,8.20
2009,02,15,16,06,8.30
2009,02,15,16,07,8.40
2009,02,15,16,08,8.50
2009,02,15,16,09,8.60
2009,02,15,16,10,8.60
2009,02,15,16,11,8.60
2009,02,15,16,12,8.50
2009,02,15,16,13,8.50
2009,02,15,16,14,8.50
2009,02,15,16,15,8.50
2009,02,15,16,16,8.50
2009,02,15,16,17,8.50
2009,02,15,16,18,8.40
2009,02,15,16,19,8.40
2009,02,15,16,20,8.30
2009,02,15,16,21,8.30
2009,02,15,16,22,8.30
2009,02,15,16,23,8.30
2009,02,15,16,24,8.30
2009,02,15,16,25,8.30
2009,02,15,16,26,8.30
2009,02,15,16,27,8.30
2009,02,15,16,28,8.30
2009,02,15,16,29,8.30
2009,02,15,16,30,8.30
2009,02,15,16,31,8.30
2009,02,15,16,32,8.30
2009,02,15,16,33,8.20
2009,02,15,16,34,8.20
2009,02,15,16,35,8.20
2009,02,15,16,36,8.20
2009,02,15,16,37,8.20
2009,02,15,16,38,8.20
2009,02,15,16,39,8.10
2009,02,15,16,40,8.10
2009,02,15,16,41,8.10
2009,02,15,16,42,8.10
2009,02,15,16,43,8.00
2009,02,15,16,44,8.00
2009,02,15,16,45,8.00
2009,02,15,16,46,8.00
2009,02,15,16,47,8.00
2009,02,15,16,48,8.00
2009,02,15,16,49,8.00
2009,02,15,16,50,7.90
2009,02,15,16,51,8.00
2009,02,15,16,52,8.00
2009,02,15,16,53,7.90
2009,02,15,16,54,7.90
2009,02,15,16,55,7.90
2009,02,15,16,56,7.90
2009,02,15,16,57,7.80
2009,02,15,16,58,7.80
2009,02,15,16,59,7.80
2009,02,15,17,00,7.80
2009,02,15,17,01,7.80
2009,02,15,17,02,7.70
2009,02,15,17,03,7.60
2009,02,15,17,04,7.60
2009,02,15,17,05,7.60
2009,02,15,17,06,7.50
2009,02,15,17,07,7.40
2009,02,15,17,08,7.30
2009,02,15,17,09,7.20
2009,02,15,17,10,7.20
2009,02,15,17,11,7.10
2009,02,15,17,12,7.00
2009,02,15,17,13,7.00
2009,02,15,17,14,6.90
2009,02,15,17,15,6.80
2009,02,15,17,16,6.80
2009,02,15,17,17,6.80
2009,02,15,17,18,6.80
2009,02,15,17,19,6.80
2009,02,15,17,20,6.80
2009,02,15,17,21,6.80
2009,02,15,17,22,6.80
2009,02,15,17,23,6.80
2009,02,15,17,24,6.80
2009,02,15,17,25,6.50
2009,02,15,17,26,6.20
2009,02,15,17,27,6.10
2009,02,15,17,28,6.10
2009,02,15,17,29,6.10
2009,02,15,17,30,6.00
2009,02,15,17,31,6.00
2009,02,15,17,32,5.90
2009,02,15,17,33,5.90
2009,02,15,17,34,5.80
2009,02,15,17,35,5.80
2009,02,15,17,36,5.80
2009,02,15,17,37,5.70
2009,02,15,17,38,5.70
2009,02,15,17,39,5.60
2009,02,15,17,40,5.60
2009,02,15,17,41,5.50
2009,02,15,17,42,5.50
2009,02,15,17,43,5.40
2009,02,15,17,44,5.40
2009,02,15,17,45,5.30
2009,02,15,17,46,5.30